Tracking 25963 objects as of 12-Aug-2022
HD Live streaming from Space Station
objects crossing your sky now

SL-14 R/B

Track SL-14 R/B now!
10-day predictions
SL-14 R/B is classified as:


NORAD ID: 16496
Int'l Code: 1986-006B
Perigee: 609.8 km
Apogee: 635.8 km
Inclination: 82.5 °
Period: 97.0 minutes
Semi major axis: 6993 km
RCS: 4.4915 m2 (large)
Launch date: January 17, 1986
Source: Commonwealth of Independent States (former USSR) (CIS)
Launch site: PLESETSK MISSILE AND SPACE COMPLEX (PKMTR)

Note: This is a ROCKET BODY
aabbcc
Your satellite tracking list
Your tracking list is empty




NASA's NSSDC Master Catalog

Two Line Element Set (TLE):
1 16496U 86006B   22224.58932208  .00000234  00000-0  24955-4 0  9993
2 16496  82.5234  45.2962 0018566 340.1891  84.6400 14.84342476955455
Source of the keplerian elements: AFSPC